STARLINK-2544 (48297 NORAD) Tracking and Keplerian Element Data

This shows tracking and keplerian element data for the satellite.

Feedback or suggestion? Click here.




ElementValue
Catalog48297
NameSTARLINK-2544
Epoch Orbit1516
Epoch Day211.25001157
Epoch Year2021
RAAN78.8621
Inclination53.0579
Eccentricity0.0001388
Argument of Perigee82.3741
Mean Anonmoly225.942
Mean Motion15.0640553
Decay Rate-0.00019823
L11 48297U 21036X 21211.25001157 -.00019823 00000-0 -13154-2 0 9991
L22 48297 53.0579 78.8621 0001388 82.3741 225.9420 15.06405530 15164

Live tracking and technical data element details for STARLINK-2544 (NORAD 48297). STARLINK-2544 can be tracked NOW for your location showing map with azimuth and elevation plus other details from your city location.

Track the satellite on the map from your city or location and see movement details for azimuth, elevation, latitude, longitude, range, height, and movement on the map or in text.







IsCatalogInMostPopularTable: catalog: 48297, numindb: 38
Update: records affected: 1



GetName: 48297 STARLINK-2544

Hit Count: updated at: Sat, 31 Jul 2021 15:27:29 GMT